Location: Baggettsville
(36.4767°N, 86.7303°W)
Time: 00:15:09
(UTC+00:00)

Helios 1A Rocket - Pass Details

Date: 29 October 2020
Orbit: 562 x 587 km, 98.3° (Epoch: 28 November)

Event Time Altitude Azimuth Distance (km) Brightness Sun altitude
Rises 23:35:26 0° 140° (SE) 2,794 6.1 -9.1°
Reaches altitude 10° 23:37:49 10° 129° (SE) 1,896 5.2 -9.6°
Maximum altitude 23:41:18 27° 70° (ENE) 1,120 3.8 -10.3°
Drops below altitude 10° 23:44:47 10° 12° (NNE) 1,896 5.3 -11.0°
Sets 23:47:09 0° 1° (N) 2,794 6.3 -11.5°
